Simultaneous Nadir Overpasses (SNOs) Predictions

Prediction of SNOs between NOAA-20 and METOP-C Satellite Orbit:

Table of predicted SNOs for the next 14.0 days since TLE Epoch: 8/5/2023
Index Date (NOAA-20) Time (NOAA-20) Lat,Lon (NOAA-20) SZA (NOAA-20 ) Date (METOP-C) Time (METOP-C) Lat,Lon (METOP-C) SZA (METOP-C ) Distance(km) Time Diff (sec)
1 08/10/2023 08:09:49 73.59, 47.76 58.26 08/10/2023 08:10:55 73.55, 50.62 58.04 90.29 66
2 08/10/2023 09:00:31 -73.49,-144.68 121.86 08/10/2023 09:01:39 -73.43,-142.32 122.06 74.98 68
3 08/10/2023 09:51:13 73.30, 23.05 57.95 08/10/2023 09:52:23 73.23, 24.56 57.78 49.07 70
4 08/10/2023 10:41:55 -73.19,-169.39 122.17 08/10/2023 10:43:06 -73.16,-168.26 122.28 36.74 71
5 08/10/2023 11:32:37 73.00, -1.68 57.64 08/10/2023 11:33:50 72.95, -1.37 57.56 11.56 73
6 08/10/2023 12:23:19 -72.90, 165.87 122.47 08/10/2023 12:24:33 -72.89, 165.82 122.50 1.89 74
7 08/10/2023 13:14:05 72.91, -26.85 57.56 08/10/2023 13:15:13 72.88, -26.86 57.51 3.04 68
8 08/10/2023 14:04:49 -72.90, 140.48 122.45 08/10/2023 14:05:54 -72.92, 140.54 122.45 2.57 65
9 08/10/2023 14:55:35 72.91, -52.23 57.58 08/10/2023 14:56:34 72.91, -52.13 57.56 3.27 59
10 08/10/2023 15:46:19 -72.91, 115.10 122.42 08/10/2023 15:47:16 -72.90, 115.16 122.45 2.41 57
11 08/10/2023 16:37:04 72.87, -77.51 57.55 08/10/2023 16:37:56 72.89, -77.52 57.56 2.33 52
12 08/10/2023 17:27:48 -72.86, 89.82 122.45 08/10/2023 17:28:38 -72.87, 89.78 122.45 1.92 50
13 08/10/2023 18:18:34 72.88,-102.90 57.58 08/10/2023 18:19:18 72.87,-102.90 57.56 0.64 44
14 08/10/2023 19:09:18 -72.87, 64.43 122.42 08/10/2023 19:10:00 -72.85, 64.39 122.44 2.03 42
15 08/10/2023 20:00:04 72.88,-128.29 57.61 08/10/2023 20:00:40 72.85,-128.29 57.57 3.61 36
16 08/10/2023 20:50:48 -72.87, 39.04 122.39 08/10/2023 20:51:21 -72.88, 39.11 122.40 2.54 33
17 08/10/2023 21:41:33 72.84,-153.57 57.58 08/10/2023 21:42:02 72.83,-153.67 57.57 3.47 29
18 08/10/2023 22:32:18 -72.88, 13.66 122.37 08/10/2023 22:32:43 -72.86, 13.73 122.39 3.04 25
19 08/10/2023 23:23:03 72.84,-178.95 57.61 08/10/2023 23:23:23 72.86,-178.95 57.62 1.75 20
20 08/11/2023 00:13:47 -72.83, -11.62 122.40 08/11/2023 00:14:05 -72.84, -11.65 122.39 1.25 18
21 08/11/2023 01:04:33 72.85, 155.66 57.63 08/11/2023 01:04:45 72.84, 155.67 57.62 1.28 12
22 08/11/2023 01:55:17 -72.84, -37.01 122.37 08/11/2023 01:55:27 -72.82, -37.04 122.39 2.38 10
23 08/11/2023 02:46:02 72.80, 130.38 57.60 08/11/2023 02:46:07 72.82, 130.29 57.62 3.36 5
24 08/11/2023 03:36:47 -72.85, -62.40 122.34 08/11/2023 03:36:48 -72.85, -62.32 122.34 2.69 1
25 08/11/2023 04:27:32 72.81, 104.99 57.63 08/11/2023 04:27:29 72.80, 104.90 57.62 3.32 3
26 08/11/2023 05:18:16 -72.80, -87.68 122.37 08/11/2023 05:18:10 -72.83, -87.70 122.34 3.19 6
27 08/11/2023 06:09:02 72.81, 79.61 57.66 08/11/2023 06:08:50 72.82, 79.62 57.67 1.30 12
28 08/11/2023 06:59:46 -72.81,-113.06 122.34 08/11/2023 06:59:32 -72.81,-113.08 122.34 0.64 14
29 08/11/2023 07:50:32 72.82, 54.22 57.68 08/11/2023 07:50:12 72.80, 54.24 57.67 1.99 20
30 08/11/2023 08:41:16 -72.81,-138.45 122.32 08/11/2023 08:40:54 -72.79,-138.47 122.34 2.88 22
31 08/11/2023 09:32:01 72.78, 28.94 57.66 08/11/2023 09:31:34 72.78, 28.86 57.67 2.76 27
32 08/11/2023 10:22:46 -72.82,-163.84 122.29 08/11/2023 10:22:15 -72.82,-163.74 122.29 3.03 31
33 08/11/2023 11:13:31 72.78, 3.55 57.68 08/11/2023 11:12:56 72.76, 3.47 57.68 3.33 35
34 08/11/2023 12:04:15 -72.77, 170.88 122.32 08/11/2023 12:03:37 -72.80, 170.87 122.29 2.49 38
35 08/11/2023 12:55:01 72.79, -21.84 57.71 08/11/2023 12:54:17 72.79, -21.80 57.72 1.16 44
36 08/11/2023 13:45:45 -72.78, 145.50 122.29 08/11/2023 13:44:59 -72.78, 145.49 122.29 0.56 46
37 08/11/2023 14:36:31 72.79, -47.22 57.74 08/11/2023 14:35:39 72.77, -47.19 57.73 2.74 52
38 08/11/2023 15:27:15 -72.79, 120.11 122.26 08/11/2023 15:26:21 -72.75, 120.10 122.28 3.49 54
39 08/11/2023 16:18:00 72.75, -72.50 57.71 08/11/2023 16:17:01 72.75, -72.57 57.73 2.22 59
40 08/11/2023 17:08:45 -72.79, 94.72 122.24 08/11/2023 17:07:42 -72.78, 94.83 122.24 3.51 63
41 08/11/2023 17:59:30 72.75, -97.89 57.74 08/11/2023 17:58:22 72.78, -97.85 57.77 3.15 68
42 08/11/2023 18:50:14 -72.75, 69.44 122.27 08/11/2023 18:49:04 -72.76, 69.44 122.23 1.81 70
43 08/11/2023 19:40:59 72.71,-123.17 57.71 08/11/2023 19:39:45 72.71,-123.34 57.73 5.47 74
44 08/11/2023 20:31:42 -72.65, 44.26 122.35 08/11/2023 20:30:28 -72.64, 43.85 122.32 13.70 74
45 08/11/2023 21:22:23 72.41,-147.94 57.40 08/11/2023 21:21:12 72.43,-149.23 57.51 43.54 71
46 08/11/2023 22:13:06 -72.35, 19.49 122.65 08/11/2023 22:11:55 -72.36, 17.96 122.54 51.54 71
47 08/11/2023 23:03:47 72.11,-172.73 57.09 08/11/2023 23:02:40 72.10,-175.21 57.25 84.96 67
48 08/11/2023 23:54:30 -72.05, -5.30 122.96 08/11/2023 23:53:23 -72.04, -8.01 122.80 92.89 67



Historial Predications of SNOs between NOAA-20 and METOP-C
